Time,TemperatureF,DewpointF,PressureIn,WindDirection,WindDirectionDegrees,WindSpeedMPH,WindSpeedGustMPH,Humidity,HourlyPrecipIn,Conditions,Clouds,dailyrainin,SoftwareType,DateUTC
2013-03-18 00:03:00,41.0,-99.9,-100.00,South,173,2.0,-999.0,-999,-99.99,,,-99.99,,2013-03-18 07:03:00,
2013-03-18 00:13:00,41.0,-99.9,-100.00,South,173,2.0,-999.0,-999,-99.99,,,-99.99,,2013-03-18 07:13:00,
2013-03-18 00:20:00,41.0,-99.9,-100.00,South,183,8.0,-999.0,-999,-99.99,,,-99.99,,2013-03-18 07:20:00,
2013-03-18 01:03:00,41.0,-99.9,-100.00,South,183,8.0,-999.0,-999,-99.99,,,-99.99,,2013-03-18 08:03:00,
2013-03-18 01:12:00,41.0,-99.9,-100.00,South,183,8.0,-999.0,-999,-99.99,,,-99.99,,2013-03-18 08:12:00,
2013-03-18 01:20:00,41.0,-99.9,-100.00,South,185,7.0,-999.0,-999,-99.99,,,-99.99,,2013-03-18 08:20:00,
2013-03-18 02:02:00,41.0,-99.9,-100.00,South,185,7.0,-999.0,-999,-99.99,,,-99.99,,2013-03-18 09:02:00,
2013-03-18 02:13:00,41.0,-99.9,-100.00,South,185,7.0,-999.0,-999,-99.99,,,-99.99,,2013-03-18 09:13:00,
2013-03-18 02:20:00,41.0,-99.9,-100.00,SSW,199,13.0,-999.0,-999,-99.99,,,-99.99,,2013-03-18 09:20:00,
2013-03-18 03:04:00,41.0,-99.9,-100.00,SSW,199,13.0,-999.0,-999,-99.99,,,-99.99,,2013-03-18 10:04:00,
2013-03-18 03:13:00,41.0,-99.9,-100.00,SSW,199,13.0,-999.0,-999,-99.99,,,-99.99,,2013-03-18 10:13:00,
2013-03-18 03:20:00,41.0,-99.9,-100.00,SSW,203,10.0,-999.0,-999,-99.99,,,-99.99,,2013-03-18 10:20:00,
2013-03-18 04:03:00,41.0,-99.9,-100.00,SSW,203,10.0,-999.0,-999,-99.99,,,-99.99,,2013-03-18 11:03:00,
2013-03-18 04:13:00,41.0,-99.9,-100.00,SSW,203,10.0,-999.0,-999,-99.99,,,-99.99,,2013-03-18 11:13:00,
2013-03-18 04:20:00,41.0,-99.9,-100.00,SSW,192,13.0,-999.0,-999,-99.99,,,-99.99,,2013-03-18 11:20:00,
2013-03-18 05:03:00,41.0,-99.9,-100.00,SSW,192,13.0,-999.0,-999,-99.99,,,-99.99,,2013-03-18 12:03:00,
2013-03-18 05:13:00,41.0,-99.9,-100.00,SSW,192,13.0,-999.0,-999,-99.99,,,-99.99,,2013-03-18 12:13:00,
2013-03-18 05:20:00,42.0,-99.9,-100.00,South,189,16.0,-999.0,-999,-99.99,,,-99.99,,2013-03-18 12:20:00,
2013-03-18 06:03:00,42.0,-99.9,-100.00,South,189,16.0,-999.0,-999,-99.99,,,-99.99,,2013-03-18 13:03:00,
2013-03-18 06:12:00,42.0,-99.9,-100.00,South,189,16.0,-999.0,-999,-99.99,,,-99.99,,2013-03-18 13:12:00,
2013-03-18 06:20:00,42.0,-99.9,-100.00,South,182,12.0,-999.0,-999,-99.99,,,-99.99,,2013-03-18 13:20:00,
2013-03-18 07:03:00,42.0,-99.9,-100.00,South,182,12.0,-999.0,-999,-99.99,,,-99.99,,2013-03-18 14:03:00,
2013-03-18 07:13:00,42.0,-99.9,-100.00,South,182,12.0,-999.0,-999,-99.99,,,-99.99,,2013-03-18 14:13:00,
2013-03-18 07:20:00,41.0,-99.9,-100.00,SSW,196,8.0,-999.0,-999,-99.99,,,-99.99,,2013-03-18 14:20:00,
2013-03-18 08:02:00,41.0,-99.9,-100.00,SSW,196,8.0,-999.0,-999,-99.99,,,-99.99,,2013-03-18 15:02:00,
2013-03-18 08:12:00,41.0,-99.9,-100.00,SSW,196,8.0,-999.0,-999,-99.99,,,-99.99,,2013-03-18 15:12:00,
2013-03-18 08:20:00,42.0,-99.9,-100.00,South,190,10.0,-999.0,-999,-99.99,,,-99.99,,2013-03-18 15:20:00,
2013-03-18 09:03:00,42.0,-99.9,-100.00,South,190,10.0,-999.0,-999,-99.99,,,-99.99,,2013-03-18 16:03:00,
2013-03-18 09:12:00,42.0,-99.9,-100.00,South,190,10.0,-999.0,-999,-99.99,,,-99.99,,2013-03-18 16:12:00,
2013-03-18 09:20:00,43.0,-99.9,-100.00,SSW,198,9.0,-999.0,-999,-99.99,,,-99.99,,2013-03-18 16:20:00,
2013-03-18 10:03:00,43.0,-99.9,-100.00,SSW,198,9.0,-999.0,-999,-99.99,,,-99.99,,2013-03-18 17:03:00,
2013-03-18 10:12:00,43.0,-99.9,-100.00,SSW,198,9.0,-999.0,-999,-99.99,,,-99.99,,2013-03-18 17:12:00,
2013-03-18 10:20:00,44.0,-99.9,-100.00,SSE,159,1.0,-999.0,-999,-99.99,,,-99.99,,2013-03-18 17:20:00,
2013-03-18 11:03:00,44.0,-99.9,-100.00,SSE,159,1.0,-999.0,-999,-99.99,,,-99.99,,2013-03-18 18:03:00,
2013-03-18 11:13:00,44.0,-99.9,-100.00,SSE,159,1.0,-999.0,-999,-99.99,,,-99.99,,2013-03-18 18:13:00,
2013-03-18 11:20:00,46.0,-99.9,-100.00,SE,130,9.0,-999.0,-999,-99.99,,,-99.99,,2013-03-18 18:20:00,
2013-03-18 12:03:00,46.0,-99.9,-100.00,SE,130,9.0,-999.0,-999,-99.99,,,-99.99,,2013-03-18 19:03:00,
2013-03-18 12:12:00,46.0,-99.9,-100.00,SE,130,9.0,-999.0,-999,-99.99,,,-99.99,,2013-03-18 19:12:00,
2013-03-18 12:20:00,47.0,-99.9,-100.00,NE,55,3.0,-999.0,-999,-99.99,,,-99.99,,2013-03-18 19:20:00,
2013-03-18 13:03:00,47.0,-99.9,-100.00,NE,55,3.0,-999.0,-999,-99.99,,,-99.99,,2013-03-18 20:03:00,
2013-03-18 13:12:00,47.0,-99.9,-100.00,NE,55,3.0,-999.0,-999,-99.99,,,-99.99,,2013-03-18 20:12:00,
2013-03-18 13:20:00,48.0,-99.9,-100.00,ESE,103,3.0,-999.0,-999,-99.99,,,-99.99,,2013-03-18 20:20:00,
2013-03-18 14:02:00,48.0,-99.9,-100.00,ESE,103,3.0,-999.0,-999,-99.99,,,-99.99,,2013-03-18 21:02:00,
2013-03-18 14:12:00,48.0,-99.9,-100.00,ESE,103,3.0,-999.0,-999,-99.99,,,-99.99,,2013-03-18 21:12:00,
2013-03-18 14:20:00,50.0,-99.9,-100.00,SE,124,3.0,-999.0,-999,-99.99,,,-99.99,,2013-03-18 21:20:00,
2013-03-18 15:04:00,50.0,-99.9,-100.00,SE,124,3.0,-999.0,-999,-99.99,,,-99.99,,2013-03-18 22:04:00,
2013-03-18 15:13:00,50.0,-99.9,-100.00,SE,124,3.0,-999.0,-999,-99.99,,,-99.99,,2013-03-18 22:13:00,
2013-03-18 15:20:00,51.0,-99.9,-100.00,South,171,7.0,-999.0,-999,-99.99,,,-99.99,,2013-03-18 22:20:00,
2013-03-18 16:03:00,51.0,-99.9,-100.00,South,171,7.0,-999.0,-999,-99.99,,,-99.99,,2013-03-18 23:03:00,
2013-03-18 16:13:00,51.0,-99.9,-100.00,South,171,7.0,-999.0,-999,-99.99,,,-99.99,,2013-03-18 23:13:00,
2013-03-18 16:20:00,51.0,-99.9,-100.00,SE,134,5.0,-999.0,-999,-99.99,,,-99.99,,2013-03-18 23:20:00,
2013-03-18 17:03:00,51.0,-99.9,-100.00,SE,134,5.0,-999.0,-999,-99.99,,,-99.99,,2013-03-19 00:03:00,
2013-03-18 17:12:00,51.0,-99.9,-100.00,SE,134,5.0,-999.0,-999,-99.99,,,-99.99,,2013-03-19 00:12:00,
2013-03-18 17:20:00,51.0,-99.9,-100.00,SSW,196,6.0,-999.0,-999,-99.99,,,-99.99,,2013-03-19 00:20:00,
2013-03-18 18:02:00,51.0,-99.9,-100.00,SSW,196,6.0,-999.0,-999,-99.99,,,-99.99,,2013-03-19 01:02:00,
2013-03-18 18:12:00,51.0,-99.9,-100.00,SSW,196,6.0,-999.0,-999,-99.99,,,-99.99,,2013-03-19 01:12:00,
2013-03-18 18:20:00,49.0,-99.9,-100.00,NNW,336,7.0,-999.0,-999,-99.99,,,-99.99,,2013-03-19 01:20:00,
2013-03-18 19:03:00,49.0,-99.9,-100.00,NNW,336,7.0,-999.0,-999,-99.99,,,-99.99,,2013-03-19 02:03:00,
2013-03-18 19:13:00,49.0,-99.9,-100.00,NNW,336,7.0,-999.0,-999,-99.99,,,-99.99,,2013-03-19 02:13:00,
2013-03-18 19:20:00,48.0,-99.9,-100.00,NNW,333,7.0,-999.0,-999,-99.99,,,-99.99,,2013-03-19 02:20:00,
2013-03-18 20:02:00,48.0,-99.9,-100.00,NNW,333,7.0,-999.0,-999,-99.99,,,-99.99,,2013-03-19 03:02:00,
2013-03-18 20:13:00,48.0,-99.9,-100.00,NNW,333,7.0,-999.0,-999,-99.99,,,-99.99,,2013-03-19 03:13:00,
2013-03-18 20:20:00,48.0,-99.9,-100.00,North,358,5.0,-999.0,-999,-99.99,,,-99.99,,2013-03-19 03:20:00,
2013-03-18 21:03:00,48.0,-99.9,-100.00,North,358,5.0,-999.0,-999,-99.99,,,-99.99,,2013-03-19 04:03:00,
2013-03-18 21:13:00,48.0,-99.9,-100.00,North,358,5.0,-999.0,-999,-99.99,,,-99.99,,2013-03-19 04:13:00,
2013-03-18 21:20:00,47.0,-99.9,-100.00,NNW,348,12.0,-999.0,-999,-99.99,,,-99.99,,2013-03-19 04:20:00,
2013-03-18 22:02:00,47.0,-99.9,-100.00,NNW,348,12.0,-999.0,-999,-99.99,,,-99.99,,2013-03-19 05:02:00,
2013-03-18 22:12:00,47.0,-99.9,-100.00,NNW,348,12.0,-999.0,-999,-99.99,,,-99.99,,2013-03-19 05:12:00,
2013-03-18 22:20:00,45.0,-99.9,-100.00,NNW,341,12.0,-999.0,-999,-99.99,,,-99.99,,2013-03-19 05:20:00,
2013-03-18 23:03:00,45.0,-99.9,-100.00,NNW,341,12.0,-999.0,-999,-99.99,,,-99.99,,2013-03-19 06:03:00,
2013-03-18 23:12:00,45.0,-99.9,-100.00,NNW,341,12.0,-999.0,-999,-99.99,,,-99.99,,2013-03-19 06:12:00,
2013-03-18 23:20:00,45.0,-99.9,-100.00,NNW,338,8.0,-999.0,-999,-99.99,,,-99.99,,2013-03-19 06:20:00,